Home > Weather > Medicine Hat > Past weeks

Flag for Canada Weather for the Past 2 Weeks in Medicine Hat, Alberta, Canada

Now
57 °F

Overcast.


Feels Like: 57 °F
Forecast: 40 / 61 °F
Wind: 2 mph from North

Location: Medicine Hat

Current Time: Apr 30, 2016 at 4:36:49 PM

Latest Report: Apr 30, 2016 at 3:00 PM


Visibility: 30 mi

Pressure: 30.30 "Hg (28.01 "Hg at 661m altitude)

Humidity: 44%

Dew Point: 36 °F

Location of Medicine HatLocation

Historic Weather in Medicine Hat — Graph

°F

Medicine Hat Temperature Yesterday

Maximum temperature yesterday: 55 °F (at 3:00 PM)
Minimum temperature yesterday: 39 °F (at 3:00 AM)
Average temperature yesterday: 47 °F

High & Low Weather Summary for the Past Weeks

 TemperatureHumidityPressure
High77 °F (Apr 21, 4:00 PM)100% (Apr 16, 4:00 AM)30.50 "Hg (Apr 16, 4:00 AM)
Low30 °F (Apr 16, 2:00 AM)12% (Apr 18, 1:00 PM)29.69 "Hg (Apr 22, 8:00 PM)
Average49 °F63%30.10 "Hg
* Reported Apr 15 3:00 PM — Apr 30 3:00 PM, Medicine Hat, Weather by CustomWeather, © 2016

Note: Actual official high and low records may vary slightly from our data, if they occured in-between our weather recording intervals... More about our weather records

Advertising

Medicine Hat Weather History for the Previous 24 Hours

Scroll right to see more
 ConditionsComfort  
Time TempWeatherWind HumidityBarometerVisibility
3:00 PM
Sat, Apr 30
57 °FOvercast.2 mph44%30.30 "Hg30 mi
2:00 PM57 °FMostly cloudy.2 mph48%30.29 "Hg30 mi
1:00 PM55 °FMostly cloudy.5 mph55%30.30 "Hg30 mi
12:00 PM55 °FCloudy.8 mph51%30.29 "Hg30 mi
11:00 AM55 °FMostly cloudy.6 mph55%30.29 "Hg30 mi
10:00 AM54 °FMostly cloudy.3 mph58%30.29 "Hg30 mi
9:00 AM52 °FMostly cloudy.3 mph67%30.27 "Hg30 mi
8:00 AM48 °FMostly cloudy.5 mph76%30.25 "Hg30 mi
7:00 AM46 °FMostly cloudy.3 mph76%30.23 "Hg30 mi
6:00 AM45 °FOvercast.3 mph76%30.21 "Hg9 mi
5:00 AM46 °FOvercast.5 mph76%30.19 "Hg9 mi
4:00 AM46 °FOvercast.6 mph76%30.17 "Hg9 mi
3:00 AM46 °FOvercast.7 mph76%30.15 "Hg9 mi
2:00 AM48 °FOvercast.3 mph71%30.14 "Hg9 mi
1:00 AM48 °FOvercast.7 mph71%30.14 "Hg9 mi
12:00 AM48 °FOvercast.3 mph71%30.12 "Hg9 mi
11:00 PM
Fri, Apr 29
48 °FOvercast.7 mph66%30.11 "Hg9 mi
10:00 PM50 °FOvercast.6 mph67%30.11 "Hg9 mi
9:00 PM50 °FOvercast.6 mph67%30.10 "Hg30 mi
8:00 PM50 °FOvercast.8 mph67%30.09 "Hg30 mi
7:00 PM52 °FOvercast.5 mph58%30.07 "Hg30 mi
6:00 PM54 °FOvercast.6 mph51%30.06 "Hg30 mi
5:00 PM54 °FOvercast.8 mph47%30.05 "Hg30 mi
4:00 PM54 °FOvercast.16 mph44%30.04 "Hg30 mi
Weather by CustomWeather, © 2016

See weather overviewHow to use our weather pages